Location: Brisbane
(27.5000°S, 153.0170°E)
Time: 10:11:59
(UTC+10:00)

ISS - Visible Passes

Search period start: 25 November 2017 00:00
Search period end: 05 December 2017 00:00
Orbit: 401 x 407 km, 51.6° (Epoch: 25 November)

Date Brightness Start Highest point End Pass type
(mag) Time Alt. Az. Time Alt. Az. Time Alt. Az.
29 Nov -1.5 03:54:07 10° N 03:56:35 20° NE 03:59:04 10° ESE visible
01 Dec -3.6 03:45:48 18° NNW 03:48:03 66° NE 03:51:20 10° SE visible
02 Dec -2.2 02:55:42 26° NE 02:55:44 26° NE 02:58:33 10° ESE visible
03 Dec -2.9 03:38:09 23° W 03:39:37 36° SW 03:42:43 10° SSE visible
04 Dec -3.1 02:47:51 53° SE 02:47:51 53° SE 02:50:28 10° SE visible
